TimeEDT,TemperatureF,Dew PointF,Humidity,Sea Level PressureIn,VisibilityMPH,Wind Direction,Wind SpeedMPH,Gust SpeedMPH,PrecipitationIn,Events,Conditions,WindDirDegrees,DateUTC
12:15 AM,48.2,48.2,100,29.92,1.2,Calm,Calm,-,N/A,,Mostly Cloudy,0,2012-10-15 04:15:00
12:18 AM,48.2,48.2,100,29.92,0.8,Calm,Calm,-,N/A,,Mostly Cloudy,0,2012-10-15 04:18:00
12:39 AM,50.0,48.2,94,29.90,1.5,Calm,Calm,-,N/A,,Overcast,0,2012-10-15 04:39:00
12:47 AM,50.0,48.2,94,29.90,2.5,Calm,Calm,-,N/A,,Overcast,0,2012-10-15 04:47:00
12:51 AM,50.0,48.9,96,29.91,2.5,Calm,Calm,-,N/A,,Overcast,0,2012-10-15 04:51:00
12:59 AM,50.0,48.2,94,29.91,3.0,Calm,Calm,-,N/A,,Mostly Cloudy,0,2012-10-15 04:59:00
1:44 AM,48.2,48.2,100,29.89,1.8,Calm,Calm,-,N/A,,Clear,0,2012-10-15 05:44:00
1:51 AM,48.0,48.0,100,29.89,0.8,Calm,Calm,-,N/A,,Clear,0,2012-10-15 05:51:00
1:59 AM,48.2,46.4,93,29.88,0.5,Calm,Calm,-,N/A,Fog,Fog,0,2012-10-15 05:59:00
2:06 AM,48.2,46.4,93,29.88,0.2,Calm,Calm,-,N/A,Fog,Fog,0,2012-10-15 06:06:00
2:27 AM,48.2,48.2,100,29.87,0.8,Calm,Calm,-,N/A,,Mist,0,2012-10-15 06:27:00
2:31 AM,48.2,48.2,100,29.87,1.2,Calm,Calm,-,N/A,,Scattered Clouds,0,2012-10-15 06:31:00
2:35 AM,48.2,48.2,100,29.86,2.0,Calm,Calm,-,N/A,,Scattered Clouds,0,2012-10-15 06:35:00
2:43 AM,48.2,46.4,93,29.86,3.0,Calm,Calm,-,N/A,,Partly Cloudy,0,2012-10-15 06:43:00
2:51 AM,48.0,46.9,96,29.86,2.5,West,3.5,-,N/A,,Clear,260,2012-10-15 06:51:00
3:12 AM,48.2,46.4,93,29.85,4.0,Calm,Calm,-,N/A,,Clear,0,2012-10-15 07:12:00
3:18 AM,48.2,48.2,100,29.85,1.5,WNW,3.5,-,N/A,,Clear,300,2012-10-15 07:18:00
3:26 AM,48.2,48.2,100,29.85,1.2,Calm,Calm,-,N/A,,Clear,0,2012-10-15 07:26:00
3:31 AM,48.2,48.2,100,29.85,0.8,Calm,Calm,-,N/A,,Mist,0,2012-10-15 07:31:00
3:43 AM,46.4,46.4,100,29.84,0.2,Calm,Calm,-,N/A,Fog,Fog,0,2012-10-15 07:43:00
3:51 AM,48.0,46.9,96,29.84,0.8,Calm,Calm,-,N/A,,Mist,0,2012-10-15 07:51:00
4:06 AM,46.4,46.4,100,29.84,0.2,Calm,Calm,-,N/A,Fog,Fog,0,2012-10-15 08:06:00
4:18 AM,46.4,44.6,93,29.84,1.0,WNW,3.5,-,N/A,,Mist,290,2012-10-15 08:18:00
4:20 AM,46.4,44.6,93,29.84,1.5,West,3.5,-,N/A,,Scattered Clouds,280,2012-10-15 08:20:00
4:28 AM,46.4,46.4,100,29.84,2.5,Calm,Calm,-,N/A,,Scattered Clouds,0,2012-10-15 08:28:00
4:35 AM,48.2,46.4,93,29.84,3.0,Calm,Calm,-,N/A,,Partly Cloudy,0,2012-10-15 08:35:00
4:45 AM,46.4,46.4,100,29.83,1.8,Calm,Calm,-,N/A,,Clear,0,2012-10-15 08:45:00
4:51 AM,46.0,46.0,100,29.83,3.0,Calm,Calm,-,N/A,,Partly Cloudy,0,2012-10-15 08:51:00
5:51 AM,52.0,51.1,97,29.81,5.0,South,5.8,-,N/A,,Partly Cloudy,190,2012-10-15 09:51:00
6:51 AM,55.0,54.0,96,29.80,10.0,South,5.8,-,N/A,,Clear,190,2012-10-15 10:51:00
7:51 AM,57.9,55.9,93,29.78,10.0,South,10.4,18.4,N/A,,Clear,190,2012-10-15 11:51:00
8:36 AM,60.8,57.2,88,29.77,10.0,South,11.5,18.4,N/A,,Scattered Clouds,190,2012-10-15 12:36:00
8:51 AM,60.1,57.9,93,29.77,10.0,South,10.4,17.3,N/A,,Scattered Clouds,190,2012-10-15 12:51:00
9:06 AM,60.8,57.2,88,29.77,9.0,SSW,10.4,19.6,N/A,,Mostly Cloudy,200,2012-10-15 13:06:00
9:51 AM,62.1,59.0,90,29.77,10.0,South,8.1,-,N/A,,Mostly Cloudy,190,2012-10-15 13:51:00
10:51 AM,63.0,59.0,87,29.75,10.0,South,10.4,18.4,N/A,,Mostly Cloudy,180,2012-10-15 14:51:00
11:24 AM,62.6,59.0,88,29.74,10.0,South,10.4,-,N/A,,Scattered Clouds,190,2012-10-15 15:24:00
11:51 AM,63.0,59.0,87,29.74,10.0,South,8.1,-,N/A,,Scattered Clouds,190,2012-10-15 15:51:00
12:51 PM,64.0,59.0,84,29.71,10.0,South,5.8,-,N/A,,Mostly Cloudy,170,2012-10-15 16:51:00
1:51 PM,66.0,59.0,78,29.68,10.0,South,5.8,-,N/A,,Partly Cloudy,170,2012-10-15 17:51:00
2:51 PM,64.9,57.9,78,29.66,10.0,South,5.8,-,N/A,,Clear,180,2012-10-15 18:51:00
3:51 PM,64.0,57.9,80,29.65,10.0,SSE,5.8,-,N/A,,Clear,160,2012-10-15 19:51:00
4:51 PM,64.0,57.9,80,29.64,10.0,SSW,8.1,-,N/A,,Mostly Cloudy,200,2012-10-15 20:51:00
5:51 PM,64.0,57.0,78,29.62,10.0,South,8.1,-,N/A,,Partly Cloudy,170,2012-10-15 21:51:00
6:51 PM,63.0,57.0,81,29.62,10.0,South,11.5,17.3,N/A,,Partly Cloudy,190,2012-10-15 22:51:00
7:51 PM,64.0,57.9,80,29.61,10.0,South,10.4,-,N/A,,Scattered Clouds,180,2012-10-15 23:51:00
8:51 PM,62.1,57.0,84,29.61,10.0,South,10.4,-,0.00,,Overcast,190,2012-10-16 00:51:00
9:51 PM,62.1,57.9,86,29.61,10.0,SSW,9.2,18.4,0.00,Rain,Light Rain,200,2012-10-16 01:51:00
9:54 PM,62.6,57.2,82,29.61,10.0,SSW,11.5,18.4,0.00,Rain,Light Rain,200,2012-10-16 01:54:00
10:51 PM,62.1,59.0,90,29.60,10.0,SW,4.6,-,0.01,,Overcast,230,2012-10-16 02:51:00
11:51 PM,61.0,59.0,93,29.58,8.0,Calm,Calm,-,N/A,,Overcast,0,2012-10-16 03:51:00
11:58 PM,60.8,59.0,94,29.57,8.0,Calm,Calm,-,N/A,,Mostly Cloudy,0,2012-10-16 03:58:00